sat.trackr.live / text

‹ back to catalog

STARLINK-30294

NORAD 57651 · 2023-122V

PAYLOAD ACTIVE UNKNOWN

§ Identity

Operator
Country
US
Launch date
2023-08-17
Launch site
AFETR
Launch vehicle
Mass (kg)
RCS (m²)

Purposes: comms

External: N2YO · Heavens-Above · Gunter

§ Orbital elements

Epoch: 2026-05-25T00:24:18.970272Z

Period
94.27 min
Inclination
43.0002°
Eccentricity
0.0000869
Mean motion
15.27563441 rev/d
Perigee alt
482.5 km
Apogee alt
483.7 km
Semi-major
6,861.2 km
B*
-6.0197e-6
RAAN
10.1409°
Arg perigee
16.9130°
Mean anomaly
343.1750°
Rev number
15,401

§ Raw data

STARLINK-302941 57651U 23122V   26145.01688623 -.00000427  00000+0 -60197-5 0  99982 57651  43.0002  10.1409 0000869  16.9130 343.1750 15.27563441154015

JSON: /api/v1/satellites/57651 · /tle

For live sub-satellite position, see the globe view (requires WebGL).

§ Visibility from observer

Set your observer location to see the next 7 days of passes ≥ 10°. The values pass through the URL so the page stays shareable.

No JS? Fill the form by hand. The geolocation button needs JavaScript.